Starlink 3661

operational
NORAD ID: 52129 Int'l Des: 2022-029 Owner: SPXS Country: US Constellation: starlink
LEOCIRCULAR

Über Starlink 3661

Beschreibung wird geladen...

Live-Position

3D-Globus wird geladen...

Nächste Überflüge

Höhenverlauf

Altitude vs Time

uPlot chart will show altitude changes over time

Zweizeiliger Elementsatz

1 52129U 22029AT 26093.78380079 .00000825 00000-0 69959-4 0 9993
2 52129 53.2180 316.4674 0001251 93.7349 266.3787 15.08829249224729
Epoch: 3. Apr. 2026 • Age: 28 hours

Aktueller Status

Höhe 553.3 km
Geschwindigkeit 7.58 km/s
Subsatellitenpunkt -39.11°S, 92.72°E
Startdatum 19. März 2022
Alter 4 years
Typ internet

Technische Details

Klassifizierung Payload
Masse 297.00 kg
Trockenmasse 275.00 kg
Gesamtmasse 297.00 kg
Länge 0.20 m
Durchmesser 2.80 m
Spannweite 9.00 m
Form Box + pan
Hersteller SPXS
Bus-Typ Starlink
Phasenstatus In Orbit
Besitzer/Staat SPXS/US

Große Konstellationen

Loading constellations...